Miscellaneous Local Product
Issued by NWS Hastings, NE

Home | Current Version | Previous Version | Graphics & Text | Print | Product List | Glossary On
Versions: 1 2 3 4 5 6 7 8 9 10 11 12 13 14 15 16 17 18 19 20 21 22 23 24 25 26 27 28 29 30 31 32 33 34 35 36 37 38 39 40 41 42 43 44 45 46 47 48 49 50
000
AXUS43 KGID 280102
MISGRI

GID CWA HOURLY WEATHER ROUNDUP
NATIONAL WEATHER SERVICE HASTINGS NE
700 PM CST THU NOV 27 2014

NOTE: "FAIR" INDICATES FEW OR NO CLOUDS BELOW 12,000 FEET WITH NO
SIGNIFICANT WEATHER AND/OR OBSTRUCTIONS TO VISIBILITY.

...SOUTH CENTRAL NEBRASKA...

CITY           SKY/WX    TMP DP  RH WIND       PRES   REMARKS
GRAND ISLAND   PTCLDY    32  17  54 SE13G20   30.13F WCI  22
HASTINGS       CLEAR     32  16  51 SE14      30.10F WCI  22
KEARNEY        CLEAR     30  18  59 E8        30.09F WCI  23
ORD            PTCLDY    31  18  58 SE10      30.07F WCI  22
YORK           CLEAR     30  18  59 SE10      30.17F WCI  21
AURORA         PTCLDY    30  18  60 SE9       30.13F WCI  22
LEXINGTON      CLEAR     38  22  52 SE9       30.04F WCI  32
HOLDREGE       CLEAR     34  20  56 SE9       30.06F WCI  27
HEBRON         CLEAR     31  15  51 SE7       30.20F WCI  24

...NEBRASKA PANHANDLE...

CITY           SKY/WX    TMP DP  RH WIND       PRES   REMARKS
CHADRON        CLEAR    N/A N/A N/A SW6       29.94R
ALLIANCE       CLEAR     36  25  64 W10       29.96S WCI  28
SCOTTSBLUFF    CLEAR     43  30  60 NW9       29.99R
SIDNEY         CLEAR     39  28  64 W6        30.04S WCI  35

...WESTERN AND NORTH CENTRAL NEBRASKA...

CITY           SKY/WX    TMP DP  RH WIND       PRES   REMARKS
VALENTINE      CLEAR     39  25  57 SW6       29.93F WCI  35
AINSWORTH      CLEAR     36  22  57 S13       29.97S WCI  27
ONEILL         CLEAR     31  19  62 SE15      30.06F WCI  20
BROKEN BOW     PTCLDY    32  20  61 SE7       30.05S WCI  26
IMPERIAL       PTCLDY    40  26  57 CALM      30.01F
NORTH PLATTE   CLEAR     30  21  69 E6        30.01F WCI  24
MCCOOK         PTCLDY    46  26  45 S10       30.02F

...EASTERN NEBRASKA...

CITY           SKY/WX    TMP DP  RH WIND       PRES   REMARKS
NORFOLK        PTCLDY    23  15  71 SE12      30.17F WCI  12
SO SIOUX CITY  PTCLDY    20   9  62 SE14      30.26F WCI   7
TEKAMAH        CLEAR     20   9  62 SE12      30.29F WCI   8
COLUMBUS       CLEAR     25  12  58 SE12      30.19F WCI  14
ALBION         CLEAR     29  16  58 SE9       30.14F WCI  20
OMAHA EPPLEY   CLOUDY    23  12  62 SE12      30.31F WCI  12
OFFUTT AFB     CLOUDY    24  14  67 SE10      30.29F WCI  13
MILLARD        PTCLDY    25  14  63 SE10      30.29F WCI  14
LINCOLN        CLEAR     28  13  53 SE12      30.25F WCI  18
NEBRASKA CITY  PTCLDY    25  13  58 SE9       30.29F WCI  16
BEATRICE       CLEAR     32  18  56 SE7       30.24F WCI  26
FALLS CITY     PTCLDY    27  18  69 SE10      30.30F WCI  17

...NORTHERN KANSAS...

CITY           SKY/WX    TMP DP  RH WIND       PRES   REMARKS
GOODLAND       CLOUDY    52  26  36 SW14      30.06F
HILL CITY      CLEAR     42  23  46 SE7       30.08F
NORTON         CLEAR     41  19  42 SE12      30.04F
PHILLIPSBURG   CLEAR     39  25  56 E9        30.10F WCI  33
SMITH CENTER   CLEAR     36  19  51 SE16      30.13F WCI  26
BELOIT         CLEAR     36  18  48 SE10G16   30.17F WCI  28
HAYS           PTCLDY    39  19  45 S13       30.11F WCI  32
RUSSELL        PTCLDY    38  22  52 S14       30.13F WCI  30
CONCORDIA      CLEAR     36  17  46 S14       30.19F WCI  27
SALINA         CLEAR     37  18  46 SE9       30.23F WCI  30
TOPEKA         CLEAR     31  20  63 SE7       30.32F WCI  24



USA.gov is the U.S. government's official web portal to all federal, state and local government web resources and services.